Newark Heath, OH

10:40 AM EDT on August 18, 2017 (GMT -0400)
Newark Heath

Weather History for KVTA - November, 2011

Change the Weather History Date:

Thursday, November 10, 2011

  Actual Average Record
Temperature  
Mean Temperature 40 °F -  
Max Temperature 46 °F 53 °F 73 °F (1949)
Min Temperature 33 °F 35 °F 17 °F (1957)
Degree Days  
Heating Degree Days 26    
Moisture  
Dew Point 29 °F    
Average Humidity 66    
Maximum Humidity 83    
Minimum Humidity 43    
Precipitation  
Precipitation 0.00 in - - ()
Sea Level Pressure  
Sea Level Pressure 30.00 in    
Wind  
Wind Speed 11 mph (WSW)    
Max Wind Speed 16 mph    
Max Gust Speed 26 mph    
Visibility 10 miles    
Events Rain    
Averages and records for this station are not official NWS values.
T = Trace of Precipitation, MM = Missing Value Source: NWS Daily Summary

Daily Weather History Graph

Daily Weather History Graph

Search for Another Location

Airport or City:

Trip Planner

Search our weather history database for the weather conditions in past years. The results will help you decide how hot, cold, wet, or windy it might be!

Date:

Astronomy

Nov. 10, 2011 Rise Set
Actual Time 7:08 AM EST 5:18 PM EST
Civil Twilight 6:40 AM EST 5:46 PM EST
Nautical Twilight 6:07 AM EST 6:19 PM EST
Astronomical Twilight 5:35 AM EST 6:50 PM EST
Moon 5:05 PM EST (11/10) 7:00 AM EST (11/10)
Length of Visible Light 11h 06m
Length of Day
10h 09m
Full, 100% of the Moon is Illuminated
Nov 10
Full
Nov 10
Full
Nov 18
Last Quarter
Nov 25
New
Dec 2
First Quarter

Hourly Weather History & Observations

Time (EST) Temp. Windchill Dew Point Humidity Pressure Visibility Wind Dir Wind Speed Gust Speed Precip Events Conditions
12:54 AM 42.1 °F 35.7 °F 32.0 °F 67% 30.03 in 10.0 mi West 11.5 mph 21.9 mph N/A   Overcast
1:41 AM 41.0 °F 32.8 °F 30.2 °F 65% 30.03 in 10.0 mi West 16.1 mph 21.9 mph N/A   Overcast
1:54 AM 41.0 °F 34.3 °F 30.9 °F 67% 30.04 in 10.0 mi West 11.5 mph - N/A   Overcast
2:54 AM 41.0 °F 34.7 °F 32.0 °F 70% 30.04 in 10.0 mi West 10.4 mph - N/A   Overcast
3:15 AM 39.2 °F 33.6 °F 33.8 °F 81% 30.03 in 10.0 mi West 8.1 mph - N/A   Overcast
3:22 AM 39.2 °F 33.6 °F 33.8 °F 81% 30.03 in 10.0 mi West 8.1 mph - N/A   Overcast
3:54 AM 39.9 °F 35.1 °F 32.0 °F 73% 30.04 in 10.0 mi WSW 6.9 mph - N/A   Overcast
4:54 AM 39.9 °F 34.5 °F 32.0 °F 73% 30.03 in 10.0 mi WSW 8.1 mph - N/A   Overcast
5:54 AM 39.0 °F 34.8 °F 33.1 °F 79% 30.04 in 10.0 mi SW 5.8 mph - N/A   Overcast
6:54 AM 37.9 °F 33.5 °F 33.1 °F 83% 30.04 in 10.0 mi SSW 5.8 mph - N/A   Mostly Cloudy
7:54 AM 37.0 °F 33.3 °F 32.0 °F 82% 30.06 in 10.0 mi SSW 4.6 mph - N/A   Clear
8:54 AM 39.0 °F 34.0 °F 33.1 °F 79% 30.06 in 10.0 mi SW 6.9 mph - N/A   Clear
9:54 AM 42.1 °F 36.1 °F 32.0 °F 67% 30.04 in 10.0 mi WSW 10.4 mph - N/A   Partly Cloudy
10:54 AM 44.1 °F 39.0 °F 33.1 °F 65% 30.01 in 10.0 mi SSW 9.2 mph - N/A   Clear
11:54 AM 46.9 °F - 32.0 °F 56% 29.98 in 10.0 mi SW 8.1 mph - N/A   Scattered Clouds
12:54 PM 46.9 °F - 30.0 °F 52% 29.95 in 10.0 mi WSW 13.8 mph - N/A   Mostly Cloudy
1:54 PM 45.0 °F 38.5 °F 30.0 °F 56% 29.94 in 10.0 mi West 13.8 mph 26.5 mph 0.00 in Rain Light Rain
2:54 PM 46.0 °F 39.3 °F 28.9 °F 51% 29.93 in 10.0 mi West 16.1 mph 24.2 mph 0.00 in   Overcast
3:54 PM 44.1 °F 37.1 °F 24.1 °F 45% 29.93 in 10.0 mi West 15.0 mph 21.9 mph N/A   Mostly Cloudy
4:54 PM 43.0 °F 35.4 °F 21.9 °F 43% 29.94 in 10.0 mi West 16.1 mph 23.0 mph N/A   Mostly Cloudy
5:54 PM 39.9 °F 33.4 °F 24.1 °F 53% 29.96 in 10.0 mi West 10.4 mph - N/A   Partly Cloudy
6:54 PM 37.9 °F 31.5 °F 23.0 °F 55% 29.97 in 10.0 mi West 9.2 mph - N/A   Clear
7:54 PM 36.0 °F 29.6 °F 24.1 °F 62% 29.97 in 10.0 mi West 8.1 mph - N/A   Clear
8:54 PM 35.1 °F 26.4 °F 24.1 °F 64% 29.98 in 10.0 mi West 12.7 mph - N/A   Clear
9:54 PM 34.0 °F 26.0 °F 25.0 °F 70% 29.98 in 10.0 mi West 10.4 mph - N/A   Clear
10:54 PM 33.1 °F 24.9 °F 26.1 °F 75% 29.99 in 10.0 mi West 10.4 mph - N/A   Clear
11:54 PM 33.1 °F 24.4 °F 26.1 °F 75% 29.97 in 10.0 mi WSW 11.5 mph - N/A   Clear